Flag for Mozambique Weather past 2 weeks in Beira, Mozambique

Now
64 °F

Mostly cloudy.


Feels Like: 64 °F
Forecast: 71 / 77 °F
Wind: 14 mph from Southeast

Location: Chimoio Airport

Current Time: Sep 4, 2015 at 7:44:50 PM

Latest Report: Sep 4, 2015 at 7:00 PM


Visibility: N/A

Pressure: 30.30 "Hg

Humidity: 100%

Dew point: 64 °F

Location of BeiraLocation

Historic Weather in Beira — Graph

°F

Beira temperature yesterday

Maximum temperature yesterday: 81 °F (at 3:00 PM)
Minimum temperature yesterday: 61 °F (at 6:00 AM)
Average temperature yesterday: 70 °F

Past Weeks' High & Low Weather Summary

 TemperatureHumidityPressure
High93 °F (Sep 2, 3:00 PM)100% (Aug 20, 10:00 PM)30.39 "Hg (Aug 20, 10:00 PM)
Low57 °F (Aug 21, 4:00 AM)26% (Sep 2, 3:00 PM)30.01 "Hg (Aug 24, 5:00 PM)
Average70 °F72%30.19 "Hg
* Reported Aug 20 6:00 PM — Sep 4 6:00 PM, Beira, Weather by CustomWeather, © 2015

Note: Actual official high and low records may vary slightly from our data, if they occured in-between our weather recording intervals... More about our weather records

Advertising

Beira weather history for previous 24 hours

 ConditionsComfort  
Time TempWeatherWind HumidityBarometerVisibility
6:00 PM
Fri, Sep 4
64 °FRain. Mostly cloudy.12 mph100%30.30 "Hg2 mi
5:00 PM64 °FDrizzle. Partly sunny.12 mph100%30.30 "Hg4 mi
4:00 PM64 °FRain. Partly sunny.12 mph100%30.30 "Hg2 mi
3:00 PM64 °FDrizzle. Partly sunny.12 mph100%30.30 "Hg2 mi
2:00 PM64 °FPartly sunny.14 mph100%30.30 "HgN/A
1:00 PM64 °FPartly sunny.14 mph100%30.33 "Hg6 mi
12:00 PM63 °FDrizzle. Partly sunny.9 mph100%30.36 "Hg5 mi
11:00 AM63 °FDrizzle. Broken clouds.13 mph100%30.36 "Hg3 mi
10:00 AM63 °FDrizzle. Broken clouds.13 mph100%30.39 "Hg3 mi
9:00 AM61 °FDrizzle. Broken clouds.17 mph100%30.36 "Hg1 mi
8:00 AM64 °FDrizzle. Broken clouds.16 mph100%30.36 "Hg2 mi
6:00 AM63 °FRain. Broken clouds.16 mph100%30.33 "Hg2 mi
5:00 AM63 °FPassing clouds.12 mph100%30.30 "Hg3 mi
4:00 AM63 °FPartly cloudy.16 mph94%30.27 "HgN/A
3:00 AM63 °FPartly cloudy.16 mph94%30.27 "HgN/A
11:00 PM
Thu, Sep 3
66 °FPassing clouds.9 mph100%30.30 "HgN/A
10:00 PM66 °FPassing clouds.12 mph94%30.30 "HgN/A
9:00 PM66 °FPassing clouds.15 mph94%30.30 "HgN/A
8:00 PM68 °FPassing clouds.14 mph88%30.27 "HgN/A
Weather by CustomWeather, © 2015

See weather overviewHow to use our weather pages